Location: Unspecified
(0.0000°N, 0.0000°E)
Time: 16:28:51
(UTC+00:00)

N. Korean satellite - Pass Details

Date: 19 January 2020
Orbit: 456 x 505 km, 97.2° (Epoch: 24 February)

Event Time Altitude Azimuth Distance (km) Brightness Sun altitude
Rises 05:20:28 0° 13° (NNE) 2,534 10.1 -11.7°
Reaches altitude 10° 05:22:31 10° 15° (NNE) 1,665 9.2 -11.2°
Maximum altitude 05:26:05 77° 100° (E) 508 6.8 -10.4°
Drops below altitude 10° 05:29:45 10° 187° (S) 1,699 9.5 -9.5°
Sets 05:31:51 0° 188° (S) 2,591 10.4 -9.1°
